Time,TemperatureF,DewpointF,PressureIn,WindDirection,WindDirectionDegrees,WindSpeedMPH,WindSpeedGustMPH,Humidity,HourlyPrecipIn,Conditions,Clouds,dailyrainin,SoftwareType,DateUTC
2013-02-06 00:01:00,45.0,43.0,-100.00,SW,234,1.0,2.0,94,-99.99,,,-99.99,,2013-02-06 08:01:00,
2013-02-06 00:11:00,45.0,43.0,-100.00,West,279,1.0,2.0,93,-99.99,,,-99.99,,2013-02-06 08:11:00,
2013-02-06 00:21:00,45.0,43.0,-100.00,SW,235,2.0,5.0,93,-99.99,,,-99.99,,2013-02-06 08:21:00,
2013-02-06 00:31:00,45.0,43.0,-100.00,SW,229,4.0,7.0,94,-99.99,,,-99.99,,2013-02-06 08:31:00,
2013-02-06 00:41:00,44.0,42.0,-100.00,SW,228,5.0,7.0,94,-99.99,,,-99.99,,2013-02-06 08:41:00,
2013-02-06 00:53:00,44.0,42.0,-100.00,SW,223,5.0,8.0,94,-99.99,,,-99.99,,2013-02-06 08:53:00,
2013-02-06 01:01:00,44.0,42.0,-100.00,SSW,206,6.0,8.0,94,-99.99,,,-99.99,,2013-02-06 09:01:00,
2013-02-06 01:11:00,44.0,42.0,-100.00,SW,227,4.0,7.0,94,-99.99,,,-99.99,,2013-02-06 09:11:00,
2013-02-06 01:21:00,45.0,43.0,-100.00,SW,230,5.0,7.0,94,-99.99,,,-99.99,,2013-02-06 09:21:00,
2013-02-06 01:31:00,45.0,43.0,-100.00,SW,228,6.0,9.0,94,-99.99,,,-99.99,,2013-02-06 09:31:00,
2013-02-06 01:41:00,45.0,43.0,-100.00,SW,223,5.0,7.0,93,-99.99,,,-99.99,,2013-02-06 09:41:00,
2013-02-06 01:51:00,44.0,42.0,-100.00,WSW,237,3.0,6.0,94,-99.99,,,-99.99,,2013-02-06 09:51:00,
2013-02-06 02:01:00,44.0,42.0,-100.00,WSW,252,3.0,5.0,94,-99.99,,,-99.99,,2013-02-06 10:01:00,
2013-02-06 02:11:00,44.0,42.0,-100.00,WSW,246,2.0,4.0,94,-99.99,,,-99.99,,2013-02-06 10:11:00,
2013-02-06 02:21:00,44.0,42.0,-100.00,West,267,2.0,4.0,93,-99.99,,,-99.99,,2013-02-06 10:21:00,
2013-02-06 02:31:00,44.0,42.0,-100.00,WSW,247,1.0,2.0,93,-99.99,,,-99.99,,2013-02-06 10:31:00,
2013-02-06 02:41:00,44.0,42.0,-100.00,SW,233,1.0,3.0,93,-99.99,,,-99.99,,2013-02-06 10:41:00,
2013-02-06 02:51:00,44.0,42.0,-100.00,SW,232,2.0,5.0,93,-99.99,,,-99.99,,2013-02-06 10:51:00,
2013-02-06 03:01:00,44.0,42.0,-100.00,SW,232,3.0,5.0,93,-99.99,,,-99.99,,2013-02-06 11:01:00,
2013-02-06 03:11:00,43.0,41.0,-100.00,SW,217,4.0,6.0,93,-99.99,,,-99.99,,2013-02-06 11:11:00,
2013-02-06 03:22:00,43.0,41.0,-100.00,WSW,254,4.0,6.0,94,-99.99,,,-99.99,,2013-02-06 11:22:00,
2013-02-06 03:31:00,43.0,41.0,-100.00,WSW,246,3.0,7.0,94,-99.99,,,-99.99,,2013-02-06 11:31:00,
2013-02-06 03:42:00,43.0,41.0,-100.00,SW,231,4.0,8.0,94,-99.99,,,-99.99,,2013-02-06 11:42:00,
2013-02-06 03:52:00,43.0,41.0,-100.00,SW,229,4.0,6.0,94,-99.99,,,-99.99,,2013-02-06 11:52:00,
2013-02-06 04:01:00,43.0,41.0,-100.00,SW,234,5.0,7.0,94,-99.99,,,-99.99,,2013-02-06 12:01:00,
2013-02-06 04:12:00,43.0,41.0,-100.00,WSW,252,4.0,6.0,94,-99.99,,,-99.99,,2013-02-06 12:12:00,
2013-02-06 04:22:00,43.0,41.0,-100.00,West,262,4.0,8.0,94,-99.99,,,-99.99,,2013-02-06 12:22:00,
2013-02-06 04:32:00,42.0,40.0,-100.00,West,262,3.0,6.0,93,-99.99,,,-99.99,,2013-02-06 12:32:00,
2013-02-06 04:42:00,43.0,41.0,-100.00,WSW,255,3.0,7.0,93,-99.99,,,-99.99,,2013-02-06 12:42:00,
2013-02-06 04:52:00,43.0,41.0,-100.00,WSW,242,3.0,5.0,93,-99.99,,,-99.99,,2013-02-06 12:52:00,
2013-02-06 05:01:00,43.0,41.0,-100.00,SW,225,1.0,4.0,93,-99.99,,,-99.99,,2013-02-06 13:01:00,
2013-02-06 05:11:00,42.0,40.0,-100.00,SW,216,2.0,5.0,92,-99.99,,,-99.99,,2013-02-06 13:11:00,
2013-02-06 05:21:00,42.0,40.0,-100.00,SW,216,2.0,5.0,92,-99.99,,,-99.99,,2013-02-06 13:21:00,
2013-02-06 05:31:00,42.0,40.0,-100.00,North,349,1.0,4.0,92,-99.99,,,-99.99,,2013-02-06 13:31:00,
2013-02-06 05:42:00,42.0,40.0,-100.00,North,349,1.0,4.0,92,-99.99,,,-99.99,,2013-02-06 13:42:00,
2013-02-06 05:52:00,42.0,40.0,-100.00,SW,235,1.0,4.0,92,-99.99,,,-99.99,,2013-02-06 13:52:00,
2013-02-06 06:01:00,42.0,40.0,-100.00,SW,223,2.0,4.0,92,-99.99,,,-99.99,,2013-02-06 14:01:00,
2013-02-06 06:11:00,42.0,40.0,-100.00,SSW,194,3.0,6.0,92,-99.99,,,-99.99,,2013-02-06 14:11:00,
2013-02-06 06:21:00,42.0,40.0,-100.00,SSE,147,2.0,4.0,92,-99.99,,,-99.99,,2013-02-06 14:21:00,
2013-02-06 06:31:00,41.0,39.0,-100.00,SSE,168,2.0,3.0,92,-99.99,,,-99.99,,2013-02-06 14:31:00,
2013-02-06 06:41:00,41.0,39.0,-100.00,SSE,168,2.0,3.0,92,-99.99,,,-99.99,,2013-02-06 14:41:00,
2013-02-06 06:52:00,41.0,39.0,-100.00,SSW,201,3.0,5.0,92,-99.99,,,-99.99,,2013-02-06 14:52:00,
2013-02-06 07:01:00,41.0,39.0,-100.00,SW,233,4.0,7.0,92,-99.99,,,-99.99,,2013-02-06 15:01:00,
2013-02-06 07:11:00,41.0,39.0,-100.00,SW,230,3.0,5.0,92,-99.99,,,-99.99,,2013-02-06 15:11:00,
2013-02-06 07:21:00,41.0,39.0,-100.00,SW,225,4.0,6.0,92,-99.99,,,-99.99,,2013-02-06 15:21:00,
2013-02-06 07:31:00,41.0,39.0,-100.00,WNW,288,2.0,4.0,92,-99.99,,,-99.99,,2013-02-06 15:31:00,
2013-02-06 07:41:00,41.0,39.0,-100.00,WNW,288,2.0,4.0,92,-99.99,,,-99.99,,2013-02-06 15:41:00,
2013-02-06 07:51:00,41.0,39.0,-100.00,WNW,290,2.0,4.0,92,-99.99,,,-99.99,,2013-02-06 15:51:00,
2013-02-06 08:01:00,41.0,39.0,-100.00,West,262,2.0,4.0,92,-99.99,,,-99.99,,2013-02-06 16:01:00,
2013-02-06 08:11:00,41.0,39.0,-100.00,SW,215,3.0,6.0,92,-99.99,,,-99.99,,2013-02-06 16:11:00,
2013-02-06 08:21:00,41.0,39.0,-100.00,SW,224,3.0,6.0,92,-99.99,,,-99.99,,2013-02-06 16:21:00,
2013-02-06 08:32:00,41.0,39.0,-100.00,SW,221,4.0,6.0,92,-99.99,,,-99.99,,2013-02-06 16:32:00,
2013-02-06 08:41:00,41.0,39.0,-100.00,SW,217,3.0,7.0,91,-99.99,,,-99.99,,2013-02-06 16:41:00,
2013-02-06 08:51:00,42.0,39.0,-100.00,WSW,241,3.0,6.0,90,-99.99,,,-99.99,,2013-02-06 16:51:00,
2013-02-06 09:01:00,42.0,39.0,-100.00,WSW,241,3.0,6.0,90,-99.99,,,-99.99,,2013-02-06 17:01:00,
2013-02-06 09:11:00,43.0,40.0,-100.00,SW,226,3.0,7.0,89,-99.99,,,-99.99,,2013-02-06 17:11:00,
2013-02-06 09:21:00,43.0,40.0,-100.00,WSW,246,3.0,6.0,88,-99.99,,,-99.99,,2013-02-06 17:21:00,
2013-02-06 09:32:00,43.0,39.0,-100.00,SW,223,4.0,8.0,87,-99.99,,,-99.99,,2013-02-06 17:32:00,
2013-02-06 09:41:00,44.0,40.0,-100.00,SSW,213,4.0,8.0,86,-99.99,,,-99.99,,2013-02-06 17:41:00,
2013-02-06 09:52:00,44.0,39.0,-100.00,SW,221,4.0,8.0,84,-99.99,,,-99.99,,2013-02-06 17:52:00,
2013-02-06 10:01:00,44.0,39.0,-100.00,WSW,250,3.0,6.0,83,-99.99,,,-99.99,,2013-02-06 18:01:00,
2013-02-06 10:11:00,44.0,39.0,-100.00,SW,223,5.0,9.0,82,-99.99,,,-99.99,,2013-02-06 18:11:00,
2013-02-06 10:22:00,45.0,40.0,-100.00,WSW,254,3.0,8.0,82,-99.99,,,-99.99,,2013-02-06 18:22:00,
2013-02-06 10:32:00,45.0,40.0,-100.00,WSW,253,4.0,7.0,81,-99.99,,,-99.99,,2013-02-06 18:32:00,
2013-02-06 10:41:00,46.0,40.0,-100.00,WSW,245,4.0,7.0,78,-99.99,,,-99.99,,2013-02-06 18:41:00,
2013-02-06 10:52:00,46.0,39.0,-100.00,WSW,247,5.0,10.0,77,-99.99,,,-99.99,,2013-02-06 18:52:00,
2013-02-06 11:01:00,46.0,39.0,-100.00,SW,217,5.0,9.0,77,-99.99,,,-99.99,,2013-02-06 19:01:00,
2013-02-06 11:11:00,47.0,39.0,-100.00,SW,235,4.0,8.0,74,-99.99,,,-99.99,,2013-02-06 19:11:00,
2013-02-06 11:21:00,48.0,40.0,-100.00,SW,230,6.0,11.0,73,-99.99,,,-99.99,,2013-02-06 19:21:00,
2013-02-06 11:31:00,48.0,40.0,-100.00,WSW,242,5.0,12.0,73,-99.99,,,-99.99,,2013-02-06 19:31:00,
2013-02-06 11:41:00,49.0,40.0,-100.00,SSW,211,4.0,9.0,70,-99.99,,,-99.99,,2013-02-06 19:41:00,
2013-02-06 11:52:00,50.0,39.0,-100.00,SW,229,3.0,7.0,67,-99.99,,,-99.99,,2013-02-06 19:52:00,
2013-02-06 12:01:00,51.0,40.0,-100.00,SW,228,3.0,8.0,66,-99.99,,,-99.99,,2013-02-06 20:01:00,
2013-02-06 12:11:00,51.0,39.0,-100.00,WSW,245,4.0,8.0,64,-99.99,,,-99.99,,2013-02-06 20:11:00,
2013-02-06 12:21:00,52.0,40.0,-100.00,WSW,243,5.0,10.0,63,-99.99,,,-99.99,,2013-02-06 20:21:00,
2013-02-06 12:31:00,53.0,40.0,-100.00,WSW,244,6.0,11.0,62,-99.99,,,-99.99,,2013-02-06 20:31:00,
2013-02-06 12:41:00,53.0,40.0,-100.00,WSW,240,7.0,11.0,61,-99.99,,,-99.99,,2013-02-06 20:41:00,
2013-02-06 12:52:00,53.0,40.0,-100.00,WSW,246,6.0,11.0,62,-99.99,,,-99.99,,2013-02-06 20:52:00,
2013-02-06 13:01:00,53.0,41.0,-100.00,WSW,256,6.0,10.0,63,-99.99,,,-99.99,,2013-02-06 21:01:00,
2013-02-06 13:11:00,53.0,40.0,-100.00,WSW,239,6.0,10.0,62,-99.99,,,-99.99,,2013-02-06 21:11:00,
2013-02-06 13:21:00,53.0,40.0,-100.00,WSW,240,7.0,14.0,61,-99.99,,,-99.99,,2013-02-06 21:21:00,
2013-02-06 13:31:00,54.0,41.0,-100.00,WSW,247,6.0,10.0,61,-99.99,,,-99.99,,2013-02-06 21:31:00,
2013-02-06 13:41:00,54.0,40.0,-100.00,WSW,237,7.0,13.0,60,-99.99,,,-99.99,,2013-02-06 21:41:00,
2013-02-06 13:51:00,54.0,40.0,-100.00,SW,234,7.0,13.0,60,-99.99,,,-99.99,,2013-02-06 21:51:00,
2013-02-06 14:01:00,54.0,40.0,-100.00,SW,230,8.0,15.0,59,-99.99,,,-99.99,,2013-02-06 22:01:00,
2013-02-06 14:11:00,54.0,40.0,-100.00,SW,224,7.0,11.0,59,-99.99,,,-99.99,,2013-02-06 22:11:00,
2013-02-06 14:21:00,55.0,41.0,-100.00,SW,220,7.0,11.0,58,-99.99,,,-99.99,,2013-02-06 22:21:00,
2013-02-06 14:31:00,55.0,41.0,-100.00,SW,234,6.0,10.0,58,-99.99,,,-99.99,,2013-02-06 22:31:00,
2013-02-06 14:41:00,56.0,41.0,-100.00,SW,235,5.0,10.0,57,-99.99,,,-99.99,,2013-02-06 22:41:00,
2013-02-06 14:51:00,56.0,41.0,-100.00,SW,228,6.0,11.0,56,-99.99,,,-99.99,,2013-02-06 22:51:00,
2013-02-06 15:01:00,56.0,41.0,-100.00,SW,227,6.0,10.0,56,-99.99,,,-99.99,,2013-02-06 23:01:00,
2013-02-06 15:11:00,56.0,40.0,-100.00,SW,214,6.0,10.0,55,-99.99,,,-99.99,,2013-02-06 23:11:00,
2013-02-06 15:21:00,57.0,41.0,-100.00,WSW,239,6.0,11.0,54,-99.99,,,-99.99,,2013-02-06 23:21:00,
2013-02-06 15:31:00,57.0,41.0,-100.00,WSW,240,7.0,11.0,54,-99.99,,,-99.99,,2013-02-06 23:31:00,
2013-02-06 15:41:00,57.0,41.0,-100.00,WSW,237,7.0,11.0,54,-99.99,,,-99.99,,2013-02-06 23:41:00,
2013-02-06 15:51:00,57.0,41.0,-100.00,SW,229,7.0,11.0,55,-99.99,,,-99.99,,2013-02-06 23:51:00,
2013-02-06 16:01:00,56.0,41.0,-100.00,SW,232,6.0,9.0,56,-99.99,,,-99.99,,2013-02-07 00:01:00,
2013-02-06 16:11:00,57.0,41.0,-100.00,SW,236,6.0,9.0,56,-99.99,,,-99.99,,2013-02-07 00:11:00,
2013-02-06 16:21:00,56.0,41.0,-100.00,WSW,240,5.0,8.0,56,-99.99,,,-99.99,,2013-02-07 00:21:00,
2013-02-06 16:31:00,56.0,41.0,-100.00,SW,234,7.0,11.0,56,-99.99,,,-99.99,,2013-02-07 00:31:00,
2013-02-06 16:41:00,56.0,41.0,-100.00,WSW,243,6.0,9.0,56,-99.99,,,-99.99,,2013-02-07 00:41:00,
2013-02-06 16:51:00,56.0,41.0,-100.00,WSW,239,6.0,10.0,56,-99.99,,,-99.99,,2013-02-07 00:51:00,
2013-02-06 17:01:00,56.0,41.0,-100.00,SW,235,6.0,8.0,57,-99.99,,,-99.99,,2013-02-07 01:01:00,
2013-02-06 17:11:00,55.0,40.0,-100.00,SW,233,5.0,8.0,57,-99.99,,,-99.99,,2013-02-07 01:11:00,
2013-02-06 17:21:00,55.0,41.0,-100.00,WSW,237,5.0,7.0,59,-99.99,,,-99.99,,2013-02-07 01:21:00,
2013-02-06 17:31:00,55.0,41.0,-100.00,WSW,238,4.0,7.0,60,-99.99,,,-99.99,,2013-02-07 01:31:00,
2013-02-06 17:41:00,54.0,41.0,-100.00,WSW,239,3.0,5.0,62,-99.99,,,-99.99,,2013-02-07 01:41:00,
2013-02-06 17:52:00,52.0,41.0,-100.00,WSW,243,4.0,6.0,67,-99.99,,,-99.99,,2013-02-07 01:52:00,
2013-02-06 18:01:00,52.0,41.0,-100.00,WSW,243,4.0,6.0,67,-99.99,,,-99.99,,2013-02-07 02:01:00,
2013-02-06 18:11:00,51.0,42.0,-100.00,WSW,249,4.0,5.0,71,-99.99,,,-99.99,,2013-02-07 02:11:00,
2013-02-06 18:21:00,50.0,42.0,-100.00,WSW,239,3.0,4.0,73,-99.99,,,-99.99,,2013-02-07 02:21:00,
2013-02-06 18:31:00,50.0,42.0,-100.00,WSW,240,2.0,3.0,74,-99.99,,,-99.99,,2013-02-07 02:31:00,
2013-02-06 18:41:00,50.0,42.0,-100.00,WSW,240,2.0,3.0,74,-99.99,,,-99.99,,2013-02-07 02:41:00,
2013-02-06 18:51:00,50.0,42.0,-100.00,WSW,240,2.0,3.0,74,-99.99,,,-99.99,,2013-02-07 02:51:00,
2013-02-06 19:01:00,47.0,40.0,-100.00,NE,42,3.0,5.0,77,-99.99,,,-99.99,,2013-02-07 03:01:00,
2013-02-06 19:11:00,46.0,40.0,-100.00,ENE,61,5.0,6.0,78,-99.99,,,-99.99,,2013-02-07 03:11:00,
2013-02-06 19:21:00,45.0,39.0,-100.00,NE,37,4.0,6.0,78,-99.99,,,-99.99,,2013-02-07 03:21:00,
2013-02-06 19:31:00,43.0,38.0,-100.00,NE,40,5.0,7.0,81,-99.99,,,-99.99,,2013-02-07 03:31:00,
2013-02-06 19:41:00,43.0,38.0,-100.00,NE,41,5.0,8.0,82,-99.99,,,-99.99,,2013-02-07 03:41:00,
2013-02-06 19:51:00,42.0,37.0,-100.00,NE,43,5.0,8.0,82,-99.99,,,-99.99,,2013-02-07 03:51:00,
2013-02-06 20:01:00,42.0,37.0,-100.00,NE,41,5.0,9.0,83,-99.99,,,-99.99,,2013-02-07 04:01:00,
2013-02-06 20:11:00,42.0,37.0,-100.00,NE,42,6.0,9.0,83,-99.99,,,-99.99,,2013-02-07 04:11:00,
2013-02-06 20:22:00,41.0,37.0,-100.00,NE,38,5.0,8.0,84,-99.99,,,-99.99,,2013-02-07 04:22:00,
2013-02-06 20:31:00,41.0,37.0,-100.00,NE,49,7.0,9.0,84,-99.99,,,-99.99,,2013-02-07 04:31:00,
2013-02-06 20:41:00,41.0,37.0,-100.00,NE,36,5.0,7.0,84,-99.99,,,-99.99,,2013-02-07 04:41:00,
2013-02-06 20:52:00,40.0,36.0,-100.00,NNE,27,3.0,6.0,85,-99.99,,,-99.99,,2013-02-07 04:52:00,
2013-02-06 21:01:00,40.0,36.0,-100.00,NE,39,4.0,6.0,86,-99.99,,,-99.99,,2013-02-07 05:01:00,
2013-02-06 21:11:00,39.0,35.0,-100.00,NE,42,5.0,8.0,86,-99.99,,,-99.99,,2013-02-07 05:11:00,
2013-02-06 21:21:00,40.0,36.0,-100.00,NE,50,6.0,9.0,85,-99.99,,,-99.99,,2013-02-07 05:21:00,
2013-02-06 21:32:00,40.0,36.0,-100.00,NE,48,6.0,9.0,85,-99.99,,,-99.99,,2013-02-07 05:32:00,
2013-02-06 21:42:00,39.0,35.0,-100.00,NE,45,6.0,8.0,86,-99.99,,,-99.99,,2013-02-07 05:42:00,
2013-02-06 21:52:00,39.0,35.0,-100.00,NE,38,5.0,8.0,87,-99.99,,,-99.99,,2013-02-07 05:52:00,
2013-02-06 22:01:00,39.0,35.0,-100.00,NE,36,6.0,9.0,85,-99.99,,,-99.99,,2013-02-07 06:01:00,
2013-02-06 22:11:00,39.0,34.0,-100.00,NNE,26,6.0,8.0,83,-99.99,,,-99.99,,2013-02-07 06:11:00,
2013-02-06 22:22:00,40.0,35.0,-100.00,NE,38,6.0,9.0,81,-99.99,,,-99.99,,2013-02-07 06:22:00,
2013-02-06 22:31:00,39.0,33.0,-100.00,NNE,27,5.0,8.0,80,-99.99,,,-99.99,,2013-02-07 06:31:00,
2013-02-06 22:43:00,39.0,33.0,-100.00,NE,40,5.0,7.0,80,-99.99,,,-99.99,,2013-02-07 06:43:00,
2013-02-06 22:52:00,40.0,34.0,-100.00,NE,50,5.0,8.0,79,-99.99,,,-99.99,,2013-02-07 06:52:00,
2013-02-06 23:01:00,39.0,33.0,-100.00,NE,49,5.0,7.0,78,-99.99,,,-99.99,,2013-02-07 07:01:00,
2013-02-06 23:11:00,40.0,32.0,-100.00,ENE,58,5.0,8.0,74,-99.99,,,-99.99,,2013-02-07 07:11:00,
2013-02-06 23:21:00,40.0,32.0,-100.00,NE,55,6.0,8.0,73,-99.99,,,-99.99,,2013-02-07 07:21:00,
2013-02-06 23:31:00,38.0,32.0,-100.00,NE,51,3.0,5.0,80,-99.99,,,-99.99,,2013-02-07 07:31:00,
2013-02-06 23:41:00,38.0,32.0,-100.00,NE,51,3.0,5.0,80,-99.99,,,-99.99,,2013-02-07 07:41:00,
2013-02-06 23:52:00,38.0,32.0,-100.00,NE,47,3.0,5.0,78,-99.99,,,-99.99,,2013-02-07 07:52:00,